Ekspress AMU-1

operational
NORAD ID: 41191 Int'l Des: 2015-082 Owner: KS Country: RU
HEOCIRCULARGSOGEO

Ekspress AMU-1について

説明を読み込み中...

リアルタイム位置

3D地球を読み込み中...

次回通過

高度履歴

Altitude vs Time

uPlot chart will show altitude changes over time

軌道要素

1 41191U 15082A 26062.65961353 .00000141 00000-0 00000-0 0 9992
2 41191 0.0192 132.8591 0003275 192.2781 109.8107 1.00270377 37201
Epoch: Mar 3, 2026 • Age: 32 hours

現在のステータス

高度 35772.9 km
速度 3.08 km/s
衛星直下点 0.01°N, 36.07°E
打ち上げ日 Dec 24, 2015
運用期間 10.1 years
タイプ other

技術仕様

分類 Payload
質量 5700.00 kg
乾燥質量 2500.00 kg
総質量 5700.00 kg
長さ 4.50 m
直径 2.80 m
スパン 39.80 m
形状 Cyl + 2 Pan
製造者 ADST
バスタイプ Eurostar 3000
フェーズステータス In Orbit
所有者/国 KS/RU

大規模コンステレーション

Loading constellations...